Boscobel, WI

1:35 AM CST on February 21, 2018 (GMT -0600)
Boscobel

Weather History for KOVS - July, 2013

Change the Weather History Date:

Monday, July 15, 2013

  Actual Average (KPDC) Record (KPDC)
Temperature  
Mean Temperature 78 °F -  
Max Temperature 93 °F 86 °F 101 °F (1988)
Min Temperature 64 °F 62 °F 45 °F (1967)
Cooling Degree Days 12    
Growing Degree Days 28 (Base 50)    
Moisture  
Dew Point 67 °F    
Average Humidity 84    
Maximum Humidity 97    
Minimum Humidity 47    
Precipitation  
Precipitation 0.00 in - - ()
Sea Level Pressure  
Sea Level Pressure 30.23 in    
Wind  
Wind Speed 1 mph (ENE)    
Max Wind Speed 6 mph    
Max Gust Speed -    
Visibility 4 miles    
Events Fog    
Averages and records for this station are not official NWS values.
T = Trace of Precipitation, MM = Missing Value Source: NWS Daily Summary

Daily Weather History Graph

Daily Weather History Graph

Search for Another Location

Airport or City:

Trip Planner

Search our weather history database for the weather conditions in past years. The results will help you decide how hot, cold, wet, or windy it might be!

Date:

Astronomy

Jul. 15, 2013 Rise Set
Actual Time 5:36 AM CDT 8:40 PM CDT
Civil Twilight 5:02 AM CDT 9:14 PM CDT
Nautical Twilight 4:18 AM CDT 9:57 PM CDT
Astronomical Twilight 3:26 AM CDT 10:49 PM CDT
Moon 1:10 PM CDT (7/15) No Moon Set
Length of Visible Light 16h 11m
Length of Day
15h 03m
Waxing Crescent, 45% of the Moon is Illuminated
Jul 15
Waxing Crescent
Jul 15
First Quarter
Jul 22
Full
Jul 29
Last Quarter
Aug 6
New

Hourly Weather History & Observations

Time (CDT) Temp. Heat Index Dew Point Humidity Pressure Visibility Wind Dir Wind Speed Gust Speed Precip Events Conditions
12:49 AM 68.0 °F - 66.2 °F 94% 30.23 in 2.5 mi NNE 3.5 mph - N/A   Clear
12:53 AM 68.0 °F - 66.0 °F 93% 30.22 in 4.0 mi NNE 3.5 mph - N/A   Clear
1:33 AM 66.9 °F - 66.0 °F 97% 30.23 in 2.5 mi Calm Calm - N/A   Clear
1:48 AM 69.8 °F - 66.2 °F 88% 30.24 in 3.0 mi Calm Calm - N/A   Clear
1:53 AM 68.0 °F - 66.0 °F 93% 30.23 in 3.0 mi Calm Calm - N/A   Clear
2:02 AM 66.9 °F - 66.0 °F 97% 30.24 in 1.8 mi Calm Calm - N/A   Clear
2:08 AM 66.9 °F - 64.9 °F 93% 30.24 in 0.8 mi Calm Calm - N/A   Clear
2:21 AM 66.9 °F - 64.9 °F 93% 30.24 in 1.5 mi Calm Calm - N/A   Clear
2:28 AM 68.0 °F - 66.0 °F 93% 30.24 in 2.0 mi Calm Calm - N/A   Clear
2:36 AM 66.9 °F - 66.0 °F 97% 30.24 in 1.0 mi Calm Calm - N/A   Clear
2:44 AM 66.9 °F - 64.9 °F 93% 30.24 in 0.2 mi Calm Calm - N/A Fog Fog
2:53 AM 68.0 °F - 66.0 °F 93% 30.23 in 0.2 mi Calm Calm - N/A Fog Fog
3:10 AM 66.9 °F - 64.9 °F 93% 30.24 in 1.5 mi Calm Calm - N/A   Partly Cloudy
3:12 AM 66.9 °F - 66.0 °F 97% 30.24 in 3.0 mi Calm Calm - N/A   Partly Cloudy
3:16 AM 66.0 °F - 64.9 °F 96% 30.24 in 1.8 mi Calm Calm - N/A   Partly Cloudy
3:19 AM 66.0 °F - 64.9 °F 96% 30.24 in 0.8 mi Calm Calm - N/A   Mist
3:27 AM 66.9 °F - 64.9 °F 93% 30.24 in 0.5 mi Calm Calm - N/A Fog Fog
3:46 AM 66.0 °F - 64.9 °F 96% 30.24 in 0.8 mi Calm Calm - N/A   Mist
3:53 AM 66.0 °F - 64.9 °F 96% 30.23 in 0.8 mi Calm Calm - N/A   Mist
4:09 AM 66.0 °F - 64.9 °F 96% 30.24 in 1.2 mi Calm Calm - N/A   Mostly Cloudy
4:13 AM 66.0 °F - 64.9 °F 96% 30.24 in 2.5 mi Calm Calm - N/A   Scattered Clouds
4:21 AM 66.0 °F - 64.0 °F 93% 30.24 in 3.0 mi Calm Calm - N/A   Partly Cloudy
4:31 AM 66.0 °F - 64.0 °F 93% 30.24 in 1.8 mi Calm Calm - N/A   Partly Cloudy
4:34 AM 64.9 °F - 64.0 °F 97% 30.24 in 0.8 mi Calm Calm - N/A   Mist
4:53 AM 64.9 °F - 64.0 °F 97% 30.23 in 0.8 mi Calm Calm - N/A   Mist
5:02 AM 64.9 °F - 64.0 °F 97% 30.24 in 1.2 mi Calm Calm - N/A   Mostly Cloudy
5:06 AM 66.0 °F - 64.0 °F 93% 30.24 in 3.0 mi Calm Calm - N/A   Mostly Cloudy
5:13 AM 66.0 °F - 64.0 °F 93% 30.24 in 1.0 mi Calm Calm - N/A   Mist
5:20 AM 64.9 °F - 64.0 °F 97% 30.24 in 0.2 mi Calm Calm - N/A Fog Fog
5:53 AM 66.0 °F - 64.0 °F 93% 30.25 in 0.2 mi Calm Calm - N/A Fog Fog
6:38 AM 68.0 °F - 66.0 °F 93% 30.25 in 2.0 mi Calm Calm - N/A   Mist
6:53 AM 69.1 °F - 66.9 °F 93% 30.25 in 2.5 mi Calm Calm - N/A   Partly Cloudy
7:02 AM 70.0 °F - 68.0 °F 93% 30.26 in 3.0 mi Calm Calm - N/A   Partly Cloudy
7:53 AM 73.9 °F - 68.0 °F 82% 30.26 in 7.0 mi NNE 3.5 mph - N/A   Clear
8:53 AM 79.0 °F - 69.1 °F 72% 30.27 in 10.0 mi NNE 3.5 mph - N/A   Clear
9:53 AM 84.0 °F 89.0 °F 71.1 °F 65% 30.26 in 10.0 mi Calm Calm - N/A   Clear
10:53 AM 88.0 °F 93.8 °F 71.1 °F 57% 30.26 in 10.0 mi South 4.6 mph - N/A   Clear
11:53 AM 90.0 °F 96.4 °F 71.1 °F 54% 30.25 in 10.0 mi Variable 4.6 mph - N/A   Mostly Cloudy
12:53 PM 89.1 °F 94.1 °F 70.0 °F 53% 30.25 in 10.0 mi Calm Calm - N/A   Mostly Cloudy
1:53 PM 89.1 °F 94.1 °F 70.0 °F 53% 30.23 in 10.0 mi Variable 3.5 mph - N/A   Scattered Clouds
2:53 PM 91.0 °F 95.6 °F 69.1 °F 48% 30.22 in 10.0 mi ESE 5.8 mph - N/A   Mostly Cloudy
3:53 PM 91.0 °F 96.6 °F 70.0 °F 50% 30.21 in 10.0 mi Variable 3.5 mph - N/A   Partly Cloudy
4:53 PM 91.9 °F 96.9 °F 69.1 °F 47% 30.19 in 10.0 mi Variable 4.6 mph - N/A   Partly Cloudy
5:53 PM 91.9 °F 97.4 °F 70.0 °F 48% 30.18 in 10.0 mi Variable 4.6 mph - N/A   Clear
6:53 PM 90.0 °F 96.4 °F 71.1 °F 54% 30.18 in 10.0 mi Variable 3.5 mph - N/A   Clear
7:53 PM 88.0 °F 94.7 °F 72.0 °F 59% 30.19 in 10.0 mi South 3.5 mph - N/A   Clear
8:53 PM 80.1 °F 84.2 °F 73.0 °F 79% 30.19 in 10.0 mi Calm Calm - N/A   Clear
9:53 PM 77.0 °F - 73.0 °F 88% 30.21 in 8.0 mi Calm Calm - N/A   Clear
10:53 PM 75.0 °F - 73.0 °F 94% 30.22 in 6.0 mi Calm Calm - N/A   Clear
11:44 PM 73.9 °F - 72.0 °F 93% 30.24 in 2.0 mi Calm Calm - N/A   Clear
11:53 PM 73.9 °F - 72.0 °F 93% 30.23 in 3.0 mi Calm Calm - N/A   Clear